Location: Irma
(52.9170°N, 111.2330°W)
Time: 12:02:08
(UTC-06:00)

Cosmos 1633 Rocket - Visible Passes

Search period start: 24 October 2014 00:00
Search period end: 02 November 2014 23:00
Orbit: 609 x 625 km, 82.5° (Epoch: 23 October)

Date Brightness Start Highest point End Pass type
(mag) Time Alt. Az. Time Alt. Az. Time Alt. Az.
24 Oct 5.6 04:19:08 16° E 04:20:11 17° E 04:23:02 10° NE visible
24 Oct 2.9 05:56:19 44° SW 05:57:31 65° WNW 06:01:54 10° N visible
25 Oct 5.0 04:36:48 27° E 04:36:48 27° E 04:40:27 10° NNE visible
25 Oct 3.5 06:13:58 38° W 06:14:26 39° WNW 06:18:35 10° N visible
26 Oct 4.3 04:54:17 39° ENE 04:54:17 39° ENE 04:57:35 10° NNE visible
26 Oct 4.1 06:31:27 25° WNW 06:31:27 25° WNW 06:35:06 10° N visible
27 Oct 4.1 05:11:40 39° NNE 05:11:40 39° NNE 05:14:31 10° NNE visible
27 Oct 4.7 06:48:49 16° NW 06:48:49 16° NW 06:51:22 10° NNW visible
28 Oct 6.1 03:51:48 12° NE 03:51:48 12° NE 03:52:27 10° NE visible
28 Oct 4.3 05:28:57 31° N 05:28:57 31° N 05:31:19 10° N visible
28 Oct 5.1 07:06:06 11° NW 07:06:06 11° NW 07:06:48 10° NW visible
29 Oct 5.9 04:09:00 15° NE 04:09:00 15° NE 04:09:52 10° NNE visible
29 Oct 4.7 05:46:09 22° NNW 05:46:09 22° NNW 05:48:00 10° N visible
30 Oct 5.7 04:26:09 15° NNE 04:26:09 15° NNE 04:26:59 10° NNE visible
30 Oct 5.0 06:03:17 16° NNW 06:03:17 16° NNW 06:04:30 10° N visible
31 Oct 5.7 04:43:14 14° NNE 04:43:14 14° NNE 04:43:55 10° NNE visible
31 Oct 5.3 06:20:22 11° NNW 06:20:22 11° NNW 06:20:46 10° NNW visible
01 Nov 5.7 05:00:17 13° N 05:00:17 13° N 05:00:43 10° N visible
02 Nov 5.7 04:17:17 11° N 04:17:17 11° N 04:17:23 10° N visible
